Location: ???????
(55.4362°N, 38.1183°E)
Time: 13:06:05
(UTC+00:00)

Cosmos 2219 Rocket - Pass Details

Date: 24 October 2021
Orbit: 826 x 848 km, 71.0° (Epoch: 01 December)

Event Time Altitude Azimuth Distance (km) Brightness Sun altitude
Exits shadow 03:17:19 - 322° (NW) 3,336 4.9 -8.9°
Reaches altitude 10° 03:19:49 10° 313° (NW) 2,467 4.1 -8.6°
Maximum altitude 03:24:42 31° 253° (WSW) 1,448 3.0 -7.9°
Drops below altitude 10° 03:29:35 10° 193° (SSW) 2,464 4.6 -7.2°
Sets 03:32:16 0° 184° (S) 3,397 5.4 -6.8°
